K5AJS Weather Reports


time (UTC)temp
C
wind
direction
speed
KPH
gust
KPH
rain 1hr
cm
rain 24hr
cm
rain mn
cm
humidity
%
barometer
mb
20260506013649 26 82 0.0 0.0 0.00 0.00 0.00 83 1007.7
20260506013150 26 282 1.6 6.4 0.00 0.00 0.00 83 1007.6
20260506012649 26 316 1.6 3.2 0.00 0.00 0.00 82 1007.5
20260506012154 26 311 3.2 3.2 0.00 0.00 0.00 82 1007.5
20260506011652 26 321 4.8 6.4 0.00 0.00 0.00 82 1007.5
20260506011149 26 304 1.6 3.2 0.00 0.00 0.00 81 1007.4
20260506010650 26 306 3.2 4.8 0.00 0.00 0.00 81 1007.3
20260506010149 26 273 1.6 3.2 0.00 0.00 0.00 80 1007.3
20260506005649 26 351 1.6 3.2 0.00 0.00 0.00 80 1007.2
20260506005149 26 82 0.0 1.6 0.00 0.00 0.00 79 1007.1
20260506004651 26 41 1.6 3.2 0.00 0.00 0.00 79 1007.1
20260506004149 26 357 1.6 3.2 0.00 0.00 0.00 78 1007.0
20260506003649 26 317 1.6 3.2 0.00 0.00 0.00 78 1007.0
20260506003149 26 289 0.0 0.0 0.00 0.00 0.00 78 1007.0
20260506002650 26 277 1.6 3.2 0.00 0.00 0.00 77 1006.9
20260506002149 26 284 1.6 1.6 0.00 0.00 0.00 77 1006.9
20260506001650 26 83 1.6 3.2 0.00 0.00 0.00 77 1007.0
20260506001149 26 342 3.2 3.2 0.00 0.00 0.00 77 1006.9
20260506000650 26 275 1.6 3.2 0.00 0.00 0.00 77 1006.9
20260506000149 26 260 3.2 3.2 0.00 0.00 0.00 76 1006.9
20260505235650 27 189 3.2 3.2 0.00 0.00 0.00 76 1006.9
20260505235149 27 283 3.2 4.8 0.00 0.00 0.00 76 1006.8
20260505234649 27 287 3.2 4.8 0.00 0.00 0.00 75 1006.9
20260505234150 27 297 3.2 3.2 0.00 0.00 0.00 75 1006.9
20260505233649 27 301 3.2 4.8 0.00 0.00 0.00 75 1006.9
20260505233149 27 258 4.8 6.4 0.00 0.00 0.00 75 1006.8
20260505232650 27 299 3.2 3.2 0.00 0.00 0.00 75 1006.9
20260505232149 27 59 1.6 3.2 0.00 0.00 0.00 76 1006.8
20260505231649 27 21 0.0 3.2 0.00 0.00 0.00 76 1006.9
20260505231150 27 258 6.4 12.9 0.00 0.00 0.00 75 1007.0
20260505230649 27 334 1.6 1.6 0.00 0.00 0.00 76 1006.9
20260505230150 27 274 3.2 3.2 0.00 0.00 0.00 76 1006.9
20260505225649 27 265 3.2 4.8 0.00 0.00 0.00 75 1007.0
20260505225150 27 312 1.6 3.2 0.00 0.00 0.00 75 1007.0
20260505224650 27 278 6.4 11.3 0.00 0.00 0.00 74 1007.0
20260505224149 27 318 3.2 6.4 0.00 0.00 0.00 74 1007.1
20260505223650 27 275 8.0 9.7 0.00 0.00 0.00 73 1007.1
20260505223149 27 258 3.2 4.8 0.00 0.00 0.00 74 1007.1
20260505222649 27 276 4.8 6.4 0.00 0.00 0.00 74 1007.1
20260505222149 27 285 3.2 4.8 0.00 0.00 0.00 75 1007.1
20260505221649 27 240 4.8 8.0 0.00 0.00 0.00 75 1007.1
20260505221149 27 275 3.2 6.4 0.00 0.00 0.00 75 1007.2
20260505220652 27 281 4.8 8.0 0.00 0.00 0.00 74 1007.3
20260505220151 27 279 6.4 8.0 0.00 0.00 0.00 74 1007.4
20260505215649 27 283 4.8 6.4 0.00 0.00 0.00 74 1007.3
20260505215149 27 282 1.6 4.8 0.00 0.00 0.00 74 1007.3
20260505214650 28 1 3.2 6.4 0.00 0.00 0.00 73 1007.3
20260505214149 27 313 1.6 4.8 0.00 0.00 0.00 75 1007.4
20260505213649 27 305 3.2 4.8 0.00 0.00 0.00 74 1007.5
20260505213149 27 273 4.8 4.8 0.00 0.00 0.00 74 1007.7
20260505212650 27 197 1.6 3.2 0.00 0.00 0.00 74 1007.6
20260505212149 27 252 3.2 4.8 0.00 0.00 0.00 74 1007.7
20260505211649 27 281 4.8 6.4 0.00 0.00 0.00 74 1007.8
20260505211151 27 277 6.4 9.7 0.00 0.00 0.00 73 1007.9
20260505210651 27 293 1.6 6.4 0.00 0.00 0.00 73 1007.9
20260505210150 27 277 4.8 8.0 0.00 0.00 0.00 74 1008.0
20260505205649 27 311 4.8 4.8 0.00 0.00 0.00 73 1008.0
20260505205149 27 292 3.2 6.4 0.00 0.00 0.00 72 1008.2
20260505204650 27 266 4.8 6.4 0.00 0.00 0.00 73 1008.1
20260505204149 27 284 3.2 4.8 0.00 0.00 0.00 73 1008.2
20260505203650 27 276 4.8 6.4 0.00 0.00 0.00 73 1008.2
20260505203149 27 299 3.2 8.0 0.00 0.00 0.00 74 1008.4
20260505202649 27 297 3.2 4.8 0.00 0.00 0.00 74 1008.5
20260505202153 27 275 6.4 8.0 0.00 0.00 0.00 74 1008.5
20260505201653 28 282 4.8 4.8 0.00 0.00 0.00 72 1008.6
20260505201150 28 273 4.8 9.7 0.00 0.00 0.00 72 1008.6
20260505200652 28 290 3.2 8.0 0.00 0.00 0.00 72 1008.6
20260505200152 27 287 3.2 4.8 0.00 0.00 0.00 72 1008.6
20260505195652 27 272 4.8 6.4 0.00 0.00 0.00 73 1008.7
20260505195151 27 252 3.2 6.4 0.00 0.00 0.00 73 1008.7
20260505194649 27 279 3.2 6.4 0.00 0.00 0.00 74 1008.8
20260505194150 27 281 3.2 4.8 0.00 0.00 0.00 73 1008.8
20260505193649 27 283 6.4 8.0 0.00 0.00 0.00 72 1008.8
20260505193150 27 279 1.6 3.2 0.00 0.00 0.00 74 1008.9
20260505192649 27 284 3.2 6.4 0.00 0.00 0.00 74 1008.9
20260505192149 27 277 3.2 6.4 0.00 0.00 0.00 73 1009.0
20260505191649 27 264 4.8 6.4 0.00 0.00 0.00 73 1009.0
20260505191150 27 264 6.4 9.7 0.00 0.00 0.00 74 1009.0
20260505190650 27 277 3.2 3.2 0.00 0.00 0.00 75 1008.9
20260505190149 27 271 4.8 6.4 0.00 0.00 0.00 75 1008.9
20260505185649 27 338 3.2 4.8 0.00 0.00 0.00 76 1009.0
20260505185150 27 280 3.2 4.8 0.00 0.00 0.00 76 1009.1
20260505184654 27 284 3.2 6.4 0.00 0.00 0.00 76 1009.1
20260505184150 27 267 3.2 4.8 0.00 0.00 0.00 76 1009.1
20260505183650 27 273 3.2 4.8 0.00 0.00 0.00 76 1009.2
20260505183151 27 273 4.8 8.0 0.00 0.00 0.00 76 1009.2
20260505182651 27 285 3.2 4.8 0.00 0.00 0.00 76 1009.3
20260505182150 27 257 3.2 4.8 0.00 0.00 0.00 76 1009.4
20260505181650 26 243 1.6 1.6 0.00 0.00 0.00 77 1009.4
20260505181150 26 274 3.2 8.0 0.00 0.00 0.00 77 1009.4
20260505180650 26 267 4.8 6.4 0.00 0.00 0.00 78 1009.5
20260505180149 26 262 4.8 6.4 0.00 0.00 0.00 77 1009.5
20260505175649 26 324 1.6 3.2 0.00 0.00 0.00 77 1009.6
20260505175149 26 297 1.6 3.2 0.00 0.00 0.00 77 1009.6
20260505174650 27 267 3.2 4.8 0.00 0.00 0.00 76 1009.6
20260505174151 26 260 3.2 4.8 0.00 0.00 0.00 77 1009.6
20260505173652 26 283 1.6 1.6 0.00 0.00 0.00 78 1009.6
20260505173150 26 274 3.2 4.8 0.00 0.00 0.00 78 1009.6
20260505172650 26 299 4.8 6.4 0.00 0.00 0.00 78 1009.6
20260505172149 26 292 3.2 4.8 0.00 0.00 0.00 78 1009.6
20260505171649 26 273 1.6 3.2 0.00 0.00 0.00 78 1009.7
20260505171149 26 256 1.6 3.2 0.00 0.00 0.00 79 1009.7
20260505170651 26 183 1.6 3.2 0.00 0.00 0.00 80 1009.7
20260505170150 26 288 3.2 4.8 0.00 0.00 0.00 80 1009.7
20260505165649 26 271 1.6 3.2 0.00 0.00 0.00 81 1009.8
20260505165150 26 240 3.2 3.2 0.00 0.00 0.00 80 1009.8
20260505164650 26 277 1.6 3.2 0.00 0.00 0.00 81 1009.8
20260505164150 26 276 4.8 6.4 0.00 0.00 0.00 81 1009.8
20260505163650 26 259 3.2 3.2 0.00 0.00 0.00 80 1009.7
20260505163150 26 300 3.2 4.8 0.00 0.00 0.00 79 1009.7
20260505162649 26 280 1.6 4.8 0.00 0.00 0.00 79 1009.7
20260505162152 26 281 4.8 8.0 0.00 0.00 0.00 79 1009.6
20260505161649 26 266 6.4 11.3 0.00 0.00 0.00 80 1009.6
20260505161149 26 269 4.8 6.4 0.00 0.00 0.00 81 1009.6
20260505160649 26 282 3.2 4.8 0.00 0.00 0.00 82 1009.7
20260505160150 25 340 1.6 3.2 0.00 0.00 0.00 82 1009.7
20260505153150 25 299 3.2 6.4 0.00 0.00 0.00 85 1009.6
20260505152653 25 270 3.2 4.8 0.00 0.00 0.00 84 1009.5
20260505152150 25 304 3.2 4.8 0.00 0.00 0.00 84 1009.5
20260505151650 25 30 1.6 3.2 0.00 0.00 0.00 85 1009.5
20260505151152 25 278 6.4 9.7 0.00 0.00 0.00 85 1009.4
20260505150649 25 292 6.4 9.7 0.00 0.00 0.00 85 1009.4
20260505140652 23 260 0.0 0.0 0.00 0.00 0.00 89 1009.3
20260505140151 23 59 0.0 1.6 0.00 0.00 0.00 90 1009.4
20260505130150 23 302 0.0 1.6 0.00 0.00 0.00 92 1009.2
20260505124650 22 67 3.2 3.2 0.00 0.00 0.00 93 1009.2
20260505124150 22 281 0.0 1.6 0.00 0.00 0.00 93 1009.1
20260505123649 22 294 0.0 1.6 0.00 0.00 0.00 94 1009.0
20260505123151 22 0 0.0 0.0 0.00 0.00 0.00 94 1009.1
20260505122651 22 286 0.0 1.6 0.00 0.00 0.00 94 1009.0
20260505122150 22 92 1.6 3.2 0.00 0.00 0.00 94 1009.0
20260505121649 22 341 0.0 1.6 0.00 0.00 0.00 94 1008.8
20260505121153 21 311 0.0 0.0 0.00 0.00 0.00 94 1008.8
20260505120650 21 0 0.0 0.0 0.00 0.00 0.00 94 1008.6
20260505120150 21 78 0.0 0.0 0.00 0.00 0.00 94 1008.5
20260505115649 21 0 0.0 0.0 0.00 0.00 0.00 94 1008.5
20260505115149 21 86 1.6 3.2 0.00 0.00 0.00 94 1008.7
20260505114652 21 0 0.0 0.0 0.00 0.00 0.00 94 1008.8
20260505114149 21 324 0.0 0.0 0.00 0.00 0.00 94 1008.8
20260505113649 21 313 0.0 1.6 0.00 0.00 0.00 94 1008.9
20260505113149 21 0 0.0 0.0 0.00 0.00 0.00 94 1008.7
20260505112649 21 4 0.0 1.6 0.00 0.00 0.00 94 1008.7
20260505112149 21 0 0.0 0.0 0.00 0.00 0.00 94 1008.6
20260505111649 21 0 0.0 0.0 0.00 0.00 0.00 94 1008.6
20260505111149 21 130 0.0 1.6 0.00 0.00 0.00 94 1008.5
20260505110649 21 28 0.0 0.0 0.00 0.00 0.00 94 1008.5
20260505110150 21 0 0.0 0.0 0.00 0.00 0.00 94 1008.7
20260505102149 20 121 0.0 0.0 0.00 0.00 0.00 94 1008.6
20260505101651 20 301 0.0 1.6 0.00 0.00 0.00 94 1008.6
20260505101149 20 101 0.0 1.6 0.00 0.00 0.00 94 1008.6
20260505100649 20 0 0.0 0.0 0.00 0.00 0.00 93 1008.8
20260505100150 20 0 0.0 0.0 0.00 0.00 0.00 94 1008.9
20260505095650 20 0 0.0 0.0 0.00 0.00 0.00 94 1009.1
20260505095150 20 0 0.0 0.0 0.00 0.00 0.00 93 1008.9
20260505094650 20 122 0.0 1.6 0.00 0.00 0.00 93 1008.7
20260505094149 20 0 0.0 0.0 0.00 0.00 0.00 93 1008.7
20260505093650 20 105 0.0 0.0 0.00 0.00 0.00 93 1008.7
20260505093151 20 131 0.0 1.6 0.00 0.00 0.00 93 1008.7
20260505092651 20 117 0.0 1.6 0.00 0.00 0.00 93 1008.8
20260505092150 20 124 0.0 1.6 0.00 0.00 0.00 93 1008.9
20260505091653 20 107 1.6 1.6 0.00 0.00 0.00 92 1009.0
20260505091150 20 0 0.0 0.0 0.00 0.00 0.00 92 1009.1
20260505090650 20 0 0.0 0.0 0.00 0.00 0.00 92 1009.1
20260505090149 20 0 0.0 0.0 0.00 0.00 0.00 92 1009.1
20260505085650 20 0 0.0 0.0 0.00 0.00 0.00 91 1009.1
20260505084701 20 136 0.0 1.6 0.00 0.00 0.00 91 1009.2
20260505084149 20 0 0.0 0.0 0.00 0.00 0.00 91 1009.2
20260505083649 20 0 0.0 0.0 0.00 0.00 0.00 91 1009.3
20260505083150 20 0 0.0 0.0 0.00 0.00 0.00 91 1009.3
20260505082649 20 0 0.0 0.0 0.00 0.00 0.00 91 1009.3
20260505082150 20 0 0.0 0.0 0.00 0.00 0.00 91 1009.2
20260505081650 20 0 0.0 0.0 0.00 0.00 0.00 91 1009.3
20260505081150 20 109 1.6 3.2 0.00 0.00 0.00 91 1009.2
20260505080652 20 0 0.0 0.0 0.00 0.00 0.00 91 1009.2
20260505080149 20 0 0.0 0.0 0.00 0.00 0.00 91 1009.3
20260505075651 20 0 0.0 0.0 0.00 0.00 0.00 91 1009.3
20260505075154 20 136 1.6 3.2 0.00 0.00 0.00 91 1009.2
20260505074650 20 0 0.0 0.0 0.00 0.00 0.00 91 1009.3
20260505074149 20 176 0.0 1.6 0.00 0.00 0.00 90 1009.4
20260505073650 20 0 0.0 0.0 0.00 0.00 0.00 90 1009.6
20260505073150 20 0 0.0 0.0 0.00 0.00 0.00 90 1009.6
20260505072649 20 0 0.0 0.0 0.00 0.00 0.00 90 1009.6
20260505072149 20 284 0.0 0.0 0.00 0.00 0.00 90 1009.7
20260505071650 20 0 0.0 0.0 0.00 0.00 0.00 89 1009.7
20260505071152 20 100 0.0 0.0 0.00 0.00 0.00 89 1009.8
20260505070649 20 123 0.0 1.6 0.00 0.00 0.00 89 1009.8
20260505070150 20 0 0.0 0.0 0.00 0.00 0.00 89 1009.9
20260505065649 20 39 0.0 0.0 0.00 0.00 0.00 89 1010.0
20260505065149 20 281 0.0 0.0 0.00 0.00 0.00 89 1010.1
20260505064649 20 0 0.0 0.0 0.00 0.00 0.00 88 1010.1
20260505064149 20 26 1.6 3.2 0.00 0.00 0.00 88 1010.1
20260505063651 20 129 1.6 1.6 0.00 0.00 0.00 88 1010.1
20260505063150 20 140 0.0 1.6 0.00 0.00 0.00 88 1010.1
20260505062649 20 85 1.6 3.2 0.00 0.00 0.00 88 1010.2
20260505062149 20 95 1.6 3.2 0.00 0.00 0.00 88 1010.2
20260505061649 20 112 0.0 0.0 0.00 0.00 0.00 88 1010.3
20260505061149 20 325 0.0 0.0 0.00 0.00 0.00 87 1010.5
20260505060649 20 0 0.0 0.0 0.00 0.00 0.00 87 1010.7
20260505060149 20 0 0.0 0.0 0.00 0.00 0.00 87 1010.6
20260505055650 20 0 0.0 0.0 0.00 0.00 0.00 87 1010.5
20260505055149 20 224 0.0 1.6 0.00 0.00 0.00 87 1010.5
20260505054649 20 303 0.0 1.6 0.00 0.00 0.00 87 1010.5
20260505054149 20 127 0.0 0.0 0.00 0.00 0.00 87 1010.5
20260505053650 20 0 0.0 0.0 0.00 0.00 0.00 87 1010.6
20260505053149 20 293 0.0 0.0 0.00 0.00 0.00 86 1010.7
20260505052650 20 0 0.0 0.0 0.00 0.00 0.00 86 1010.8
20260505052150 20 0 0.0 0.0 0.00 0.00 0.00 86 1010.8
20260505051649 21 299 0.0 0.0 0.00 0.00 0.00 86 1010.9
20260505051149 21 0 0.0 0.0 0.00 0.00 0.00 86 1010.9
20260505050650 21 356 1.6 4.8 0.00 0.00 0.00 86 1010.9
20260505050157 21 285 0.0 3.2 0.00 0.00 0.00 85 1010.9
20260505041649 21 76 1.6 3.2 0.00 0.00 0.00 83 1010.9
20260505041149 21 126 0.0 1.6 0.00 0.00 0.00 83 1011.0
20260505040649 21 63 0.0 3.2 0.00 0.00 0.00 83 1011.1
20260505035749 21 108 1.6 6.4 0.00 0.00 0.00 82 1010.9
20260505035150 21 295 1.6 4.8 0.00 0.00 0.00 82 1011.0
20260505034649 21 122 1.6 3.2 0.00 0.00 0.00 82 1011.1
20260505034149 21 0 0.0 0.0 0.00 0.00 0.00 82 1011.3
20260505033650 21 137 0.0 3.2 0.00 0.00 0.00 82 1011.2
20260505033150 21 301 0.0 1.6 0.00 0.00 0.00 82 1011.2
20260505032650 21 73 0.0 1.6 0.00 0.00 0.00 81 1011.2
20260505032149 21 316 0.0 1.6 0.00 0.00 0.00 81 1011.3
20260505031649 22 181 0.0 1.6 0.00 0.00 0.00 81 1011.3
20260505031149 22 89 1.6 3.2 0.00 0.00 0.00 81 1011.4
20260505030650 22 150 0.0 1.6 0.00 0.00 0.00 80 1011.3
20260505030151 22 99 0.0 1.6 0.00 0.00 0.00 80 1011.3
20260505025651 22 300 0.0 3.2 0.00 0.00 0.00 80 1011.2
20260505025151 22 121 0.0 3.2 0.00 0.00 0.00 80 1011.2
20260505024651 22 294 0.0 3.2 0.00 0.00 0.00 79 1011.2
20260505024151 22 319 0.0 3.2 0.00 0.00 0.00 79 1011.2
20260505023650 22 308 0.0 3.2 0.00 0.00 0.00 79 1011.2
20260505023151 22 350 0.0 1.6 0.00 0.00 0.00 78 1011.2
20260505022651 22 185 0.0 4.8 0.00 0.00 0.00 78 1011.2
20260505022151 22 340 0.0 3.2 0.00 0.00 0.00 78 1011.1
20260505021652 22 196 1.6 3.2 0.00 0.00 0.00 78 1011.0
20260505021152 22 100 1.6 6.4 0.00 0.00 0.00 77 1011.0
20260505020652 22 133 1.6 3.2 0.00 0.00 0.00 77 1011.0
20260505020149 22 286 0.0 3.2 0.00 0.00 0.00 77 1010.9
20260505015650 22 293 0.0 1.6 0.00 0.00 0.00 76 1010.9
20260505015150 23 254 1.6 3.2 0.00 0.00 0.00 75 1010.8
20260505014650 23 335 1.6 4.8 0.00 0.00 0.00 74 1010.8
20260505014150 23 338 1.6 6.4 0.00 0.00 0.00 73 1010.7